CKS253 KJFK-KCVG

Flight info

Callsign CKS253
Flight time 1h 32m
Altitude 30000
Route RBV Q430 SAAME J6 COLNS GAVNN8
Aircraft B77L/H-SDE1E2E3FGHIJ2J3J4J5M1RWXY/LB1D1

Departure

Time 2026-05-06 23:32
Airport John F. Kennedy International Airport (KJFK)

Arrival

Time 2026-05-07 01:04
Airport Cincinnati Northern Kentucky International Airport (KCVG)
Time Latitude Longitude Altitude Speed Heading
2026-05-06 23:04 40.65657 -73.77955 30 ft 0 kts 212°
2026-05-06 23:18 40.65685 -73.77932 27 ft 3 kts 212°
2026-05-06 23:18 40.65705 -73.77922 25 ft 3 kts 179°
2026-05-06 23:18 40.65727 -73.77928 25 ft 3 kts 148°
2026-05-06 23:19 40.65721 -73.77923 25 ft 1 kts 141°
2026-05-06 23:19 40.65712 -73.77907 25 ft 2 kts 120°
2026-05-06 23:19 40.65710 -73.77902 25 ft 0 kts 120°
2026-05-06 23:23 40.65696 -73.77872 28 ft 10 kts 120°
2026-05-06 23:24 40.65686 -73.77849 28 ft 2 kts 120°
2026-05-06 23:24 40.65680 -73.77836 27 ft 2 kts 120°
2026-05-06 23:24 40.65671 -73.77814 27 ft 6 kts 120°
2026-05-06 23:24 40.65641 -73.77747 27 ft 0 kts 121°
2026-05-06 23:25 40.65632 -73.77742 29 ft 5 kts 159°
2026-05-06 23:25 40.65596 -73.77754 29 ft 6 kts 206°
2026-05-06 23:25 40.65557 -73.77783 29 ft 8 kts 211°
2026-05-06 23:25 40.65503 -73.77825 27 ft 10 kts 211°
2026-05-06 23:26 40.65445 -73.77871 29 ft 10 kts 210°
2026-05-06 23:26 40.65398 -73.77888 29 ft 7 kts 154°
2026-05-06 23:26 40.65362 -73.77824 28 ft 10 kts 122°
2026-05-06 23:26 40.65326 -73.77749 29 ft 10 kts 121°
2026-05-06 23:27 40.65284 -73.77657 28 ft 14 kts 120°
2026-05-06 23:27 40.65230 -73.77536 27 ft 17 kts 120°
2026-05-06 23:27 40.65173 -73.77410 26 ft 12 kts 120°
2026-05-06 23:27 40.65129 -73.77312 28 ft 13 kts 121°
2026-05-06 23:28 40.65079 -73.77203 28 ft 14 kts 121°
2026-05-06 23:28 40.65028 -73.77091 31 ft 14 kts 121°
2026-05-06 23:28 40.64975 -73.76972 31 ft 15 kts 121°
2026-05-06 23:28 40.64921 -73.76853 29 ft 14 kts 121°
2026-05-06 23:29 40.64874 -73.76750 30 ft 6 kts 121°
2026-05-06 23:29 40.64869 -73.76711 32 ft 6 kts 74°
2026-05-06 23:29 40.64907 -73.76677 28 ft 7 kts 29°
2026-05-06 23:29 40.64961 -73.76636 31 ft 10 kts 30°
2026-05-06 23:30 40.65030 -73.76582 31 ft 12 kts 31°
2026-05-06 23:30 40.65093 -73.76529 31 ft 8 kts 41°
2026-05-06 23:30 40.65100 -73.76478 26 ft 3 kts 110°
2026-05-06 23:30 40.65095 -73.76465 26 ft 0 kts 118°
2026-05-06 23:31 40.65080 -73.76431 27 ft 11 kts 120°
2026-05-06 23:31 40.65054 -73.76373 27 ft 9 kts 128°
2026-05-06 23:31 40.64996 -73.76375 27 ft 11 kts 209°
2026-05-06 23:31 40.64821 -73.76512 32 ft 55 kts 211°
2026-05-06 23:32 40.64290 -73.76929 26 ft 120 kts 210°
2026-05-06 23:32 40.63412 -73.77604 38 ft 168 kts 209°
2026-05-06 23:32 40.62389 -73.78389 531 ft 169 kts 210°
2026-05-06 23:32 40.61387 -73.79200 1179 ft 165 kts 216°
2026-05-06 23:33 40.60455 -73.80037 1877 ft 164 kts 220°
2026-05-06 23:33 40.59492 -73.80970 2132 ft 186 kts 220°
2026-05-06 23:33 40.58366 -73.82062 2350 ft 213 kts 219°
2026-05-06 23:33 40.57121 -73.83250 2693 ft 233 kts 219°
2026-05-06 23:34 40.55770 -73.84532 3377 ft 240 kts 220°
2026-05-06 23:34 40.54437 -73.85821 4171 ft 243 kts 220°
2026-05-06 23:34 40.53075 -73.87153 4986 ft 245 kts 222°
2026-05-06 23:34 40.51720 -73.88532 5769 ft 248 kts 221°
2026-05-06 23:35 40.50359 -73.89919 6584 ft 247 kts 224°
2026-05-06 23:35 40.49018 -73.91344 7317 ft 248 kts 226°
2026-05-06 23:35 40.47903 -73.93059 7940 ft 246 kts 239°
2026-05-06 23:35 40.46988 -73.94941 8816 ft 243 kts 241°
2026-05-06 23:36 40.46106 -73.96835 9667 ft 242 kts 241°
2026-05-06 23:36 40.45520 -73.98088 10134 ft 245 kts 241°
2026-05-06 23:36 40.44608 -74.00029 10537 ft 262 kts 240°
2026-05-06 23:36 40.43617 -74.02116 10696 ft 286 kts 240°
2026-05-06 23:37 40.42512 -74.04420 10879 ft 311 kts 240°
2026-05-06 23:37 40.41315 -74.06888 11306 ft 327 kts 240°
2026-05-06 23:37 40.40072 -74.09431 12018 ft 335 kts 239°
2026-05-06 23:37 40.38803 -74.12010 12923 ft 338 kts 239°
2026-05-06 23:38 40.37521 -74.14609 13845 ft 341 kts 239°
2026-05-06 23:38 40.36224 -74.17234 14621 ft 345 kts 239°
2026-05-06 23:38 40.34911 -74.19889 15369 ft 350 kts 239°
2026-05-06 23:38 40.33579 -74.22583 16139 ft 354 kts 240°
2026-05-06 23:39 40.32230 -74.25308 16901 ft 359 kts 240°
2026-05-06 23:39 40.30864 -74.28065 17642 ft 363 kts 240°
2026-05-06 23:39 40.29480 -74.30855 18348 ft 368 kts 241°
2026-05-06 23:39 40.28083 -74.33669 19068 ft 369 kts 241°
2026-05-06 23:40 40.26684 -74.36481 19830 ft 368 kts 242°
2026-05-06 23:40 40.25290 -74.39285 20658 ft 367 kts 242°
2026-05-06 23:40 40.23896 -74.42084 21392 ft 368 kts 242°
2026-05-06 23:40 40.22507 -74.44906 22070 ft 369 kts 244°
2026-05-06 23:41 40.21393 -74.47913 22699 ft 367 kts 252°
2026-05-06 23:41 40.20551 -74.51059 23398 ft 366 kts 256°
2026-05-06 23:41 40.19871 -74.54264 23979 ft 366 kts 260°
2026-05-06 23:41 40.19502 -74.57563 24489 ft 367 kts 264°
2026-05-06 23:42 40.19248 -74.60902 24972 ft 371 kts 265°
2026-05-06 23:42 40.19004 -74.64271 25483 ft 374 kts 265°
2026-05-06 23:42 40.18757 -74.67667 25988 ft 376 kts 265°
2026-05-06 23:42 40.18502 -74.71090 26510 ft 379 kts 265°
2026-05-06 23:43 40.18240 -74.74530 27011 ft 381 kts 265°
2026-05-06 23:43 40.17972 -74.77989 27507 ft 384 kts 264°
2026-05-06 23:43 40.17698 -74.81474 27977 ft 387 kts 264°
2026-05-06 23:43 40.17420 -74.84983 28433 ft 390 kts 264°
2026-05-06 23:44 40.17138 -74.88522 28869 ft 392 kts 264°
2026-05-06 23:44 40.16853 -74.92075 29290 ft 395 kts 264°
2026-05-06 23:44 40.16565 -74.95658 29701 ft 397 kts 264°
2026-05-06 23:45 40.15982 -75.02864 29871 ft 407 kts 264°
2026-05-06 23:45 40.15382 -75.10212 29855 ft 404 kts 264°
2026-05-06 23:46 40.14785 -75.17478 29864 ft 400 kts 264°
2026-05-06 23:46 40.14187 -75.24703 29865 ft 400 kts 264°
2026-05-06 23:47 40.13585 -75.31930 29864 ft 401 kts 264°
2026-05-06 23:47 40.12977 -75.39144 29862 ft 403 kts 264°
2026-05-06 23:48 40.12345 -75.46432 29862 ft 404 kts 264°
2026-05-06 23:48 40.11706 -75.53708 29856 ft 403 kts 264°
2026-05-06 23:49 40.11068 -75.60963 29862 ft 401 kts 264°
2026-05-06 23:49 40.10427 -75.68195 29856 ft 401 kts 264°
2026-05-06 23:50 40.09783 -75.75418 29854 ft 400 kts 264°
2026-05-06 23:50 40.08811 -75.86227 29865 ft 399 kts 264°
2026-05-06 23:51 40.08168 -75.93413 29850 ft 398 kts 264°
2026-05-06 23:51 40.07530 -76.00500 29851 ft 397 kts 264°
2026-05-06 23:52 40.06881 -76.07664 29846 ft 397 kts 264°
2026-05-06 23:52 40.06226 -76.14829 29879 ft 398 kts 264°
2026-05-06 23:53 40.05566 -76.22005 29856 ft 399 kts 264°
2026-05-06 23:53 40.04901 -76.29191 29853 ft 399 kts 264°
2026-05-06 23:54 40.04232 -76.36379 29856 ft 399 kts 264°
2026-05-06 23:54 40.03385 -76.43523 29851 ft 400 kts 257°
2026-05-06 23:55 40.01611 -76.50412 29873 ft 402 kts 253°
2026-05-06 23:55 39.99188 -76.56988 29868 ft 405 kts 245°
2026-05-06 23:56 39.96242 -76.63216 29860 ft 402 kts 245°
2026-05-06 23:56 39.93350 -76.69419 29869 ft 401 kts 245°
2026-05-06 23:57 39.90462 -76.75622 29873 ft 400 kts 245°
2026-05-06 23:57 39.87561 -76.81820 29870 ft 401 kts 245°
2026-05-06 23:58 39.84675 -76.87977 29906 ft 401 kts 245°
2026-05-06 23:58 39.81766 -76.94172 29876 ft 401 kts 245°
2026-05-06 23:59 39.78968 -77.00121 29871 ft 400 kts 245°
2026-05-06 23:59 39.76078 -77.06256 29872 ft 400 kts 245°
2026-05-07 00:00 39.73175 -77.12406 29876 ft 399 kts 245°
2026-05-07 00:00 39.70270 -77.18552 29882 ft 400 kts 244°
2026-05-07 00:01 39.67353 -77.24706 29899 ft 401 kts 244°
2026-05-07 00:01 39.64429 -77.30861 29904 ft 400 kts 244°
2026-05-07 00:02 39.61512 -77.36996 29899 ft 399 kts 244°
2026-05-07 00:02 39.58605 -77.43100 29903 ft 399 kts 244°
2026-05-07 00:03 39.55680 -77.49230 29878 ft 398 kts 244°
2026-05-07 00:03 39.52766 -77.55329 29893 ft 399 kts 244°
2026-05-07 00:04 39.49833 -77.61452 29906 ft 400 kts 244°
2026-05-07 00:04 39.46895 -77.67573 29896 ft 400 kts 244°
2026-05-07 00:05 39.43958 -77.73682 29890 ft 400 kts 244°
2026-05-07 00:05 39.41026 -77.79770 29886 ft 398 kts 244°
2026-05-07 00:06 39.38157 -77.85881 29883 ft 395 kts 247°
2026-05-07 00:06 39.35651 -77.92190 29886 ft 395 kts 248°
2026-05-07 00:07 39.33141 -77.98529 29906 ft 397 kts 248°
2026-05-07 00:07 39.30647 -78.04803 29898 ft 397 kts 248°
2026-05-07 00:08 39.28121 -78.11136 29905 ft 396 kts 248°
2026-05-07 00:08 39.25594 -78.17456 29910 ft 396 kts 248°
2026-05-07 00:09 39.23084 -78.23718 29908 ft 396 kts 248°
2026-05-07 00:09 39.20556 -78.30022 29861 ft 396 kts 247°
2026-05-07 00:10 39.18023 -78.36320 29894 ft 396 kts 247°
2026-05-07 00:10 39.15479 -78.42616 29908 ft 396 kts 246°
2026-05-07 00:11 39.12933 -78.48929 29899 ft 398 kts 247°
2026-05-07 00:11 39.10370 -78.55269 29884 ft 400 kts 246°
2026-05-07 00:12 39.07797 -78.61613 29878 ft 400 kts 246°
2026-05-07 00:12 39.05223 -78.67942 29884 ft 399 kts 246°
2026-05-07 00:13 39.02651 -78.74259 29873 ft 398 kts 246°
2026-05-07 00:13 39.00086 -78.80552 29893 ft 397 kts 246°
2026-05-07 00:14 38.97514 -78.86839 29890 ft 398 kts 246°
2026-05-07 00:14 38.94932 -78.93138 29886 ft 399 kts 246°
2026-05-07 00:15 38.92345 -78.99441 29889 ft 400 kts 246°
2026-05-07 00:15 38.89789 -79.05665 29906 ft 399 kts 246°
2026-05-07 00:16 38.87188 -79.11968 29904 ft 400 kts 245°
2026-05-07 00:16 38.84727 -79.18335 29860 ft 396 kts 252°
2026-05-07 00:17 38.83799 -79.25261 29908 ft 397 kts 266°
2026-05-07 00:17 38.83712 -79.32376 29913 ft 401 kts 266°
2026-05-07 00:18 38.83608 -79.39563 29912 ft 404 kts 266°
2026-05-07 00:18 38.83485 -79.46725 29939 ft 404 kts 265°
2026-05-07 00:19 38.83335 -79.53916 29924 ft 402 kts 265°
2026-05-07 00:19 38.83181 -79.61076 29943 ft 401 kts 265°
2026-05-07 00:20 38.83027 -79.68216 29933 ft 400 kts 265°
2026-05-07 00:20 38.82867 -79.75348 29989 ft 401 kts 265°
2026-05-07 00:21 38.82703 -79.82499 29991 ft 400 kts 265°
2026-05-07 00:21 38.82536 -79.89603 29979 ft 397 kts 265°
2026-05-07 00:22 38.82364 -79.96665 29976 ft 395 kts 265°
2026-05-07 00:22 38.82223 -80.02433 29980 ft 395 kts 265°
2026-05-07 00:23 38.82047 -80.09461 29980 ft 395 kts 265°
2026-05-07 00:23 38.81861 -80.16512 29970 ft 396 kts 265°
2026-05-07 00:24 38.81670 -80.23552 29973 ft 394 kts 265°
2026-05-07 00:24 38.81476 -80.30551 29958 ft 392 kts 265°
2026-05-07 00:25 38.81280 -80.37529 29967 ft 391 kts 265°
2026-05-07 00:25 38.81079 -80.44487 29962 ft 391 kts 265°
2026-05-07 00:26 38.80874 -80.51454 29967 ft 391 kts 265°
2026-05-07 00:26 38.80664 -80.58435 29964 ft 392 kts 265°
2026-05-07 00:27 38.80453 -80.65410 29975 ft 391 kts 265°
2026-05-07 00:27 38.80234 -80.72370 29970 ft 390 kts 265°
2026-05-07 00:28 38.80015 -80.79321 29964 ft 391 kts 265°
2026-05-07 00:28 38.79789 -80.86279 29968 ft 391 kts 265°
2026-05-07 00:29 38.79563 -80.93194 29997 ft 391 kts 265°
2026-05-07 00:30 38.78465 -81.06848 29970 ft 386 kts 258°
2026-05-07 00:30 38.77259 -81.13575 29973 ft 391 kts 257°
2026-05-07 00:31 38.76040 -81.20425 29970 ft 395 kts 257°
2026-05-07 00:31 38.74853 -81.27276 29975 ft 393 kts 257°
2026-05-07 00:32 38.73678 -81.34100 29982 ft 392 kts 257°
2026-05-07 00:32 38.72508 -81.40892 29971 ft 390 kts 257°
2026-05-07 00:33 38.71390 -81.47686 29967 ft 390 kts 260°
2026-05-07 00:33 38.70931 -81.54619 29985 ft 391 kts 265°
2026-05-07 00:34 38.70737 -81.61585 29984 ft 392 kts 265°
2026-05-07 00:34 38.70526 -81.68550 29977 ft 391 kts 265°
2026-05-07 00:35 38.70311 -81.75490 29974 ft 389 kts 265°
2026-05-07 00:35 38.70092 -81.82414 29967 ft 388 kts 265°
2026-05-07 00:36 38.69869 -81.89315 29972 ft 388 kts 265°
2026-05-07 00:36 38.69643 -81.96205 29976 ft 387 kts 265°
2026-05-07 00:37 38.69415 -82.03024 29969 ft 387 kts 265°
2026-05-07 00:37 38.69178 -82.09912 29972 ft 388 kts 265°
2026-05-07 00:38 38.68938 -82.16806 29974 ft 388 kts 265°
2026-05-07 00:38 38.68694 -82.23660 29968 ft 388 kts 265°
2026-05-07 00:39 38.68447 -82.30571 29971 ft 389 kts 265°
2026-05-07 00:39 38.68196 -82.37479 29974 ft 389 kts 265°
2026-05-07 00:40 38.67941 -82.44385 29989 ft 388 kts 265°
2026-05-07 00:40 38.67690 -82.51075 29974 ft 388 kts 265°
2026-05-07 00:41 38.67426 -82.57963 29981 ft 387 kts 265°
2026-05-07 00:41 38.67159 -82.64837 29989 ft 387 kts 265°
2026-05-07 00:42 38.66888 -82.71713 29990 ft 387 kts 265°
2026-05-07 00:42 38.66613 -82.78588 29991 ft 387 kts 265°
2026-05-07 00:43 38.66334 -82.85475 29996 ft 388 kts 265°
2026-05-07 00:43 38.66051 -82.92366 29983 ft 388 kts 265°
2026-05-07 00:44 38.65763 -82.99258 29994 ft 388 kts 265°
2026-05-07 00:44 38.65475 -83.06054 29990 ft 388 kts 265°
2026-05-07 00:45 38.65184 -83.12888 29983 ft 375 kts 265°
2026-05-07 00:45 38.65041 -83.16205 29323 ft 373 kts 264°
2026-05-07 00:45 38.64898 -83.19491 28661 ft 367 kts 264°
2026-05-07 00:46 38.64758 -83.22719 28032 ft 361 kts 264°
2026-05-07 00:46 38.64617 -83.25907 27398 ft 356 kts 264°
2026-05-07 00:46 38.64477 -83.29053 26765 ft 352 kts 264°
2026-05-07 00:46 38.64337 -83.32165 26157 ft 349 kts 264°
2026-05-07 00:47 38.64197 -83.35205 25540 ft 346 kts 264°
2026-05-07 00:47 38.64059 -83.38266 24937 ft 343 kts 264°
2026-05-07 00:47 38.63922 -83.41306 24329 ft 342 kts 264°
2026-05-07 00:47 38.63784 -83.44333 23748 ft 341 kts 264°
2026-05-07 00:48 38.63646 -83.47348 23106 ft 338 kts 264°
2026-05-07 00:48 38.63507 -83.50341 22476 ft 336 kts 264°
2026-05-07 00:48 38.63370 -83.53308 21886 ft 333 kts 264°
2026-05-07 00:48 38.63231 -83.56256 21338 ft 331 kts 264°
2026-05-07 00:49 38.63092 -83.59181 20787 ft 329 kts 264°
2026-05-07 00:49 38.62955 -83.62085 20241 ft 326 kts 264°
2026-05-07 00:49 38.62817 -83.64978 19705 ft 325 kts 264°
2026-05-07 00:49 38.62678 -83.67860 19158 ft 324 kts 264°
2026-05-07 00:50 38.62541 -83.70731 18612 ft 323 kts 264°
2026-05-07 00:50 38.62402 -83.73588 18011 ft 322 kts 264°
2026-05-07 00:50 38.62265 -83.76440 17426 ft 321 kts 264°
2026-05-07 00:50 38.62127 -83.79279 16866 ft 319 kts 265°
2026-05-07 00:51 38.61989 -83.82101 16330 ft 317 kts 265°
2026-05-07 00:51 38.61850 -83.84911 15794 ft 316 kts 265°
2026-05-07 00:51 38.61712 -83.87706 15266 ft 314 kts 266°
2026-05-07 00:51 38.61834 -83.90471 14734 ft 313 kts 278°
2026-05-07 00:52 38.62380 -83.93174 14253 ft 316 kts 284°
2026-05-07 00:52 38.63180 -83.95815 13744 ft 322 kts 293°
2026-05-07 00:52 38.64328 -83.98132 13221 ft 330 kts 299°
2026-05-07 00:52 38.65613 -84.00510 12679 ft 336 kts 299°
2026-05-07 00:53 38.66935 -84.02981 12157 ft 337 kts 298°
2026-05-07 00:53 38.68214 -84.05408 12020 ft 318 kts 298°
2026-05-07 00:53 38.69399 -84.07670 11858 ft 295 kts 297°
2026-05-07 00:53 38.70498 -84.09772 11694 ft 274 kts 297°
2026-05-07 00:54 38.71455 -84.11785 11341 ft 256 kts 288°
2026-05-07 00:54 38.72005 -84.13867 10846 ft 247 kts 283°
2026-05-07 00:54 38.72412 -84.15984 10226 ft 243 kts 271°
2026-05-07 00:54 38.72443 -84.18156 9612 ft 240 kts 266°
2026-05-07 00:55 38.72398 -84.20262 9062 ft 238 kts 267°
2026-05-07 00:55 38.72359 -84.22396 9036 ft 242 kts 267°
2026-05-07 00:55 38.72330 -84.24573 8849 ft 246 kts 268°
2026-05-07 00:55 38.72312 -84.26782 8483 ft 249 kts 268°
2026-05-07 00:56 38.72302 -84.28984 8125 ft 246 kts 268°
2026-05-07 00:56 38.72300 -84.31133 7989 ft 236 kts 269°
2026-05-07 00:56 38.72299 -84.33210 8000 ft 234 kts 269°
2026-05-07 00:56 38.72299 -84.35306 7999 ft 238 kts 269°
2026-05-07 00:57 38.72299 -84.37442 8014 ft 241 kts 269°
2026-05-07 00:57 38.72332 -84.39576 7988 ft 238 kts 277°
2026-05-07 00:57 38.72870 -84.41599 7847 ft 248 kts 296°
2026-05-07 00:57 38.73903 -84.43413 7557 ft 254 kts 304°
2026-05-07 00:58 38.74998 -84.45200 7238 ft 254 kts 304°
2026-05-07 00:58 38.76078 -84.46973 6936 ft 250 kts 304°
2026-05-07 00:58 38.77137 -84.48713 6654 ft 245 kts 306°
2026-05-07 00:58 38.78172 -84.50420 6357 ft 241 kts 306°
2026-05-07 00:59 38.80179 -84.53744 5766 ft 230 kts 307°
2026-05-07 00:59 38.81143 -84.55344 5482 ft 223 kts 307°
2026-05-07 00:59 38.82080 -84.56900 5240 ft 219 kts 307°
2026-05-07 01:00 38.83008 -84.58445 4990 ft 219 kts 308°
2026-05-07 01:00 38.83940 -84.59998 4745 ft 219 kts 308°
2026-05-07 01:00 38.84872 -84.61550 4486 ft 220 kts 308°
2026-05-07 01:00 38.85805 -84.63103 4236 ft 219 kts 310°
2026-05-07 01:01 38.86981 -84.64239 4000 ft 211 kts 344°
2026-05-07 01:01 38.88425 -84.64523 3793 ft 213 kts 353°
2026-05-07 01:01 38.89918 -84.64705 3509 ft 218 kts 357°
2026-05-07 01:01 38.91423 -84.64742 3198 ft 212 kts 360°
2026-05-07 01:02 38.92841 -84.64729 2899 ft 196 kts 360°
2026-05-07 01:02 38.94197 -84.64720 2683 ft 195 kts 360°
2026-05-07 01:02 38.95529 -84.64713 2431 ft 185 kts 360°
2026-05-07 01:02 38.96761 -84.64708 2174 ft 170 kts 359°
2026-05-07 01:03 38.97893 -84.64701 1860 ft 156 kts 359°
2026-05-07 01:03 38.98975 -84.64706 1644 ft 157 kts 359°
2026-05-07 01:03 39.00072 -84.64700 1447 ft 158 kts 360°
2026-05-07 01:03 39.01178 -84.64695 1268 ft 160 kts 358°
2026-05-07 01:04 39.02294 -84.64685 1052 ft 160 kts 359°
2026-05-07 01:04 39.03400 -84.64673 890 ft 153 kts 359°
2026-05-07 01:04 39.04340 -84.64674 887 ft 105 kts
2026-05-07 01:04 39.04774 -84.64672 889 ft 37 kts
2026-05-07 01:05 39.04973 -84.64708 887 ft 24 kts 339°
2026-05-07 01:05 39.05066 -84.64771 886 ft 13 kts 328°
2026-05-07 01:05 39.05137 -84.64832 884 ft 12 kts 317°
2026-05-07 01:05 39.05154 -84.64922 883 ft 7 kts 272°
2026-05-07 01:06 39.05150 -84.64979 883 ft 7 kts 240°
2026-05-07 01:06 39.05106 -84.64989 883 ft 7 kts 180°
2026-05-07 01:06 39.05053 -84.64989 883 ft 8 kts 180°
2026-05-07 01:06 39.04995 -84.64989 883 ft 9 kts 180°
2026-05-07 01:07 39.04918 -84.64989 883 ft 13 kts 180°
2026-05-07 01:07 39.04811 -84.64989 884 ft 17 kts 180°
2026-05-07 01:07 39.04694 -84.64989 884 ft 17 kts 180°
2026-05-07 01:07 39.04576 -84.64988 884 ft 17 kts 180°
2026-05-07 01:08 39.04458 -84.64988 883 ft 17 kts 180°
2026-05-07 01:08 39.04340 -84.64989 883 ft 17 kts 180°
2026-05-07 01:08 39.04223 -84.64990 883 ft 17 kts 180°
2026-05-07 01:08 39.04106 -84.64991 883 ft 17 kts 180°
2026-05-07 01:09 39.04078 -84.64991 883 ft 17 kts 180°
2026-05-07 01:09 39.03961 -84.64991 883 ft 17 kts 180°